Year,Month,Day,Hour,Minute,Value (Times are PST for temperature in C)
2008,08,18,00,00,16.20
2008,08,18,00,01,16.20
2008,08,18,00,02,16.30
2008,08,18,00,03,16.30
2008,08,18,00,04,16.30
2008,08,18,00,05,16.30
2008,08,18,00,06,16.30
2008,08,18,00,07,16.30
2008,08,18,00,08,16.30
2008,08,18,00,09,16.30
2008,08,18,00,10,16.40
2008,08,18,00,11,16.40
2008,08,18,00,12,16.40
2008,08,18,00,13,16.40
2008,08,18,00,14,16.40
2008,08,18,00,15,16.40
2008,08,18,00,16,16.40
2008,08,18,00,17,16.50
2008,08,18,00,18,16.60
2008,08,18,00,19,16.60
2008,08,18,00,20,16.60
2008,08,18,00,21,16.60
2008,08,18,00,22,16.60
2008,08,18,00,23,16.70
2008,08,18,00,24,16.70
2008,08,18,00,25,16.70
2008,08,18,00,26,16.70
2008,08,18,00,27,16.70
2008,08,18,00,28,16.70
2008,08,18,00,29,16.70
2008,08,18,00,30,16.70
2008,08,18,00,31,16.70
2008,08,18,00,32,16.80
2008,08,18,00,33,16.80
2008,08,18,00,34,16.80
2008,08,18,00,35,16.80
2008,08,18,00,36,16.70
2008,08,18,00,37,16.70
2008,08,18,00,38,16.70
2008,08,18,00,39,16.70
2008,08,18,00,40,16.70
2008,08,18,00,41,16.70
2008,08,18,00,42,16.70
2008,08,18,00,43,16.70
2008,08,18,00,44,16.70
2008,08,18,00,45,16.70
2008,08,18,00,46,16.70
2008,08,18,00,47,16.60
2008,08,18,00,48,16.60
2008,08,18,00,49,16.60
2008,08,18,00,50,16.50
2008,08,18,00,51,16.40
2008,08,18,00,52,16.40
2008,08,18,00,53,16.40
2008,08,18,00,54,16.40
2008,08,18,00,55,16.40
2008,08,18,00,56,16.40
2008,08,18,00,57,16.30
2008,08,18,00,58,16.30
2008,08,18,00,59,16.30
2008,08,18,01,00,16.20
2008,08,18,01,01,16.20
2008,08,18,01,02,16.20
2008,08,18,01,03,16.20
2008,08,18,01,04,16.20
2008,08,18,01,05,16.20
2008,08,18,01,06,16.20
2008,08,18,01,07,16.20
2008,08,18,01,08,16.10
2008,08,18,01,09,16.20
2008,08,18,01,10,16.20
2008,08,18,01,11,16.20
2008,08,18,01,12,16.20
2008,08,18,01,13,16.20
2008,08,18,01,14,16.20
2008,08,18,01,15,16.20
2008,08,18,01,16,16.20
2008,08,18,01,17,16.20
2008,08,18,01,18,16.20
2008,08,18,01,19,16.20
2008,08,18,01,20,16.20
2008,08,18,01,21,16.20
2008,08,18,01,22,16.30
2008,08,18,01,23,16.30
2008,08,18,01,24,16.30
2008,08,18,01,25,16.30
2008,08,18,01,26,16.30
2008,08,18,01,27,16.30
2008,08,18,01,28,16.30
2008,08,18,01,29,16.30
2008,08,18,01,30,16.30
2008,08,18,01,31,16.30
2008,08,18,01,32,16.30
2008,08,18,01,33,16.30
2008,08,18,01,34,16.40
2008,08,18,01,35,16.40
2008,08,18,01,36,16.40
2008,08,18,01,37,16.40
2008,08,18,01,38,16.40
2008,08,18,01,39,16.40
2008,08,18,01,40,16.40
2008,08,18,01,41,16.40
2008,08,18,01,42,16.40
2008,08,18,01,43,16.40
2008,08,18,01,44,16.40
2008,08,18,01,45,16.40
2008,08,18,01,46,16.30
2008,08,18,01,47,16.40
2008,08,18,01,48,16.40
2008,08,18,01,49,16.40
2008,08,18,01,50,16.40
2008,08,18,01,51,16.40
2008,08,18,01,52,16.40
2008,08,18,01,53,16.40
2008,08,18,01,54,16.40
2008,08,18,01,55,16.50
2008,08,18,01,56,16.60
2008,08,18,01,57,16.60
2008,08,18,01,58,16.60
2008,08,18,01,59,16.70
2008,08,18,02,00,16.70
2008,08,18,02,01,16.70
2008,08,18,02,02,16.70
2008,08,18,02,03,16.70
2008,08,18,02,04,16.70
2008,08,18,02,05,16.60
2008,08,18,02,06,16.60
2008,08,18,02,07,16.50
2008,08,18,02,08,16.40
2008,08,18,02,09,16.40
2008,08,18,02,10,16.40
2008,08,18,02,11,16.40
2008,08,18,02,12,16.40
2008,08,18,02,13,16.30
2008,08,18,02,14,16.30
2008,08,18,02,15,16.30
2008,08,18,02,16,16.30
2008,08,18,02,17,16.30
2008,08,18,02,18,16.30
2008,08,18,02,19,16.30
2008,08,18,02,20,16.30
2008,08,18,02,21,16.30
2008,08,18,02,22,16.30
2008,08,18,02,23,16.30
2008,08,18,02,24,16.30
2008,08,18,02,25,16.30
2008,08,18,02,26,16.30
2008,08,18,02,27,16.30
2008,08,18,02,28,16.30
2008,08,18,02,29,16.30
2008,08,18,02,30,16.20
2008,08,18,02,31,16.20
2008,08,18,02,32,16.20
2008,08,18,02,33,16.20
2008,08,18,02,34,16.10
2008,08,18,02,35,16.10
2008,08,18,02,36,16.10
2008,08,18,02,37,16.10
2008,08,18,02,38,16.10
2008,08,18,02,39,16.10
2008,08,18,02,40,16.10
2008,08,18,02,41,16.10
2008,08,18,02,42,16.10
2008,08,18,02,43,16.10
2008,08,18,02,44,16.10
2008,08,18,02,45,16.00
2008,08,18,02,46,15.90
2008,08,18,02,47,15.90
2008,08,18,02,48,15.90
2008,08,18,02,49,15.80
2008,08,18,02,50,15.80
2008,08,18,02,51,15.80
2008,08,18,02,52,15.80
2008,08,18,02,53,15.80
2008,08,18,02,54,15.80
2008,08,18,02,55,15.80
2008,08,18,02,56,15.90
2008,08,18,02,57,15.90
2008,08,18,02,58,15.90
2008,08,18,02,59,15.90
2008,08,18,03,00,16.00
2008,08,18,03,01,16.10
2008,08,18,03,02,16.10
2008,08,18,03,03,16.10
2008,08,18,03,04,16.10
2008,08,18,03,05,16.10
2008,08,18,03,06,16.20
2008,08,18,03,07,16.20
2008,08,18,03,08,16.30
2008,08,18,03,09,16.30
2008,08,18,03,10,16.40
2008,08,18,03,11,16.40
2008,08,18,03,12,16.40
2008,08,18,03,13,16.40
2008,08,18,03,14,16.40
2008,08,18,03,15,16.40
2008,08,18,03,16,16.40
2008,08,18,03,17,16.40
2008,08,18,03,18,16.40
2008,08,18,03,19,16.40
2008,08,18,03,20,16.40
2008,08,18,03,21,16.40
2008,08,18,03,22,16.40
2008,08,18,03,23,16.40
2008,08,18,03,24,16.40
2008,08,18,03,25,16.40
2008,08,18,03,26,16.40
2008,08,18,03,27,16.40
2008,08,18,03,28,16.40
2008,08,18,03,29,16.40
2008,08,18,03,30,16.30
2008,08,18,03,31,16.30
2008,08,18,03,32,16.30
2008,08,18,03,33,16.20
2008,08,18,03,34,16.20
2008,08,18,03,35,16.20
2008,08,18,03,36,16.10
2008,08,18,03,37,16.10
2008,08,18,03,38,16.10
2008,08,18,03,39,16.00
2008,08,18,03,40,15.90
2008,08,18,03,41,15.90
2008,08,18,03,42,15.90
2008,08,18,03,43,15.90
2008,08,18,03,44,15.80
2008,08,18,03,45,15.80
2008,08,18,03,46,15.80
2008,08,18,03,47,15.80
2008,08,18,03,48,15.80
2008,08,18,03,49,15.80
2008,08,18,03,50,15.80
2008,08,18,03,51,15.70
2008,08,18,03,52,15.70
2008,08,18,03,53,15.60
2008,08,18,03,54,15.60
2008,08,18,03,55,15.50
2008,08,18,03,56,15.50
2008,08,18,03,57,15.40
2008,08,18,03,58,15.30
2008,08,18,03,59,15.30
2008,08,18,04,00,15.20
2008,08,18,04,01,15.20
2008,08,18,04,02,15.10
2008,08,18,04,03,15.00
2008,08,18,04,04,15.00
2008,08,18,04,05,15.00
2008,08,18,04,06,14.90
2008,08,18,04,07,14.90
2008,08,18,04,08,14.80
2008,08,18,04,09,14.80
2008,08,18,04,10,14.80
2008,08,18,04,11,14.70
2008,08,18,04,12,14.70
2008,08,18,04,13,14.70
2008,08,18,04,14,14.60
2008,08,18,04,15,14.60
2008,08,18,04,16,14.50
2008,08,18,04,17,14.50
2008,08,18,04,18,14.50
2008,08,18,04,19,14.50
2008,08,18,04,20,14.50
2008,08,18,04,21,14.40
2008,08,18,04,22,14.40
2008,08,18,04,23,14.30
2008,08,18,04,24,14.30
2008,08,18,04,25,14.30
2008,08,18,04,26,14.30
2008,08,18,04,27,14.30
2008,08,18,04,28,14.30
2008,08,18,04,29,14.40
2008,08,18,04,30,14.40
2008,08,18,04,31,14.40
2008,08,18,04,32,14.40
2008,08,18,04,33,14.40
2008,08,18,04,34,14.50
2008,08,18,04,35,14.50
2008,08,18,04,36,14.50
2008,08,18,04,37,14.50
2008,08,18,04,38,14.60
2008,08,18,04,39,14.70
2008,08,18,04,40,14.80
2008,08,18,04,41,14.80
2008,08,18,04,42,14.80
2008,08,18,04,43,14.80
2008,08,18,04,44,14.80
2008,08,18,04,45,14.80
2008,08,18,04,46,14.90
2008,08,18,04,47,14.90
2008,08,18,04,48,15.00
2008,08,18,04,49,15.00
2008,08,18,04,50,15.10
2008,08,18,04,51,15.10
2008,08,18,04,52,15.10
2008,08,18,04,53,15.10
2008,08,18,04,54,15.10
2008,08,18,04,55,15.10
2008,08,18,04,56,15.10
2008,08,18,04,57,15.10
2008,08,18,04,58,15.20
2008,08,18,04,59,15.20
2008,08,18,05,00,15.20
2008,08,18,05,01,15.20
2008,08,18,05,02,15.30
2008,08,18,05,03,15.30
2008,08,18,05,04,15.30
2008,08,18,05,05,15.30
2008,08,18,05,06,15.30
2008,08,18,05,07,15.30
2008,08,18,05,08,15.40
2008,08,18,05,09,15.40
2008,08,18,05,10,15.40
2008,08,18,05,11,15.40
2008,08,18,05,12,15.40
2008,08,18,05,13,15.40
2008,08,18,05,14,15.40
2008,08,18,05,15,15.40
2008,08,18,05,16,15.40
2008,08,18,05,17,15.40
2008,08,18,05,18,15.40
2008,08,18,05,19,15.40
2008,08,18,05,20,15.30
2008,08,18,05,21,15.30
2008,08,18,05,22,15.30
2008,08,18,05,23,15.30
2008,08,18,05,24,15.30
2008,08,18,05,25,15.20
2008,08,18,05,26,15.20
2008,08,18,05,27,15.20
2008,08,18,05,28,15.20
2008,08,18,05,29,15.10
2008,08,18,05,30,15.10
2008,08,18,05,31,15.00
2008,08,18,05,32,15.00
2008,08,18,05,33,15.00
2008,08,18,05,34,15.00
2008,08,18,05,35,14.90
2008,08,18,05,36,14.90
2008,08,18,05,37,14.90
2008,08,18,05,38,14.90
2008,08,18,05,39,14.90
2008,08,18,05,40,14.90
2008,08,18,05,41,14.90
2008,08,18,05,42,14.80
2008,08,18,05,43,14.80
2008,08,18,05,44,14.80
2008,08,18,05,45,14.80
2008,08,18,05,46,14.80
2008,08,18,05,47,14.80
2008,08,18,05,48,14.80
2008,08,18,05,49,14.70
2008,08,18,05,50,14.70
2008,08,18,05,51,14.70
2008,08,18,05,52,14.70
2008,08,18,05,53,14.70
2008,08,18,05,54,14.70
2008,08,18,05,55,14.70
2008,08,18,05,56,14.70
2008,08,18,05,57,14.60
2008,08,18,05,58,14.60
2008,08,18,05,59,14.60
2008,08,18,06,00,14.60
2008,08,18,06,01,14.60
2008,08,18,06,02,14.50
2008,08,18,06,03,14.50
2008,08,18,06,04,14.50
2008,08,18,06,05,14.40
2008,08,18,06,06,14.40
2008,08,18,06,07,14.40
2008,08,18,06,08,14.40
2008,08,18,06,09,14.40
2008,08,18,06,10,14.40
2008,08,18,06,11,14.40
2008,08,18,06,12,14.40
2008,08,18,06,13,14.40
2008,08,18,06,14,14.40
2008,08,18,06,15,14.40
2008,08,18,06,16,14.40
2008,08,18,06,17,14.40
2008,08,18,06,18,14.40
2008,08,18,06,19,14.40
2008,08,18,06,20,14.40
2008,08,18,06,21,14.30
2008,08,18,06,22,14.30
2008,08,18,06,23,14.30
2008,08,18,06,24,14.30
2008,08,18,06,25,14.30
2008,08,18,06,26,14.30
2008,08,18,06,27,14.30
2008,08,18,06,28,14.30
2008,08,18,06,29,14.30
2008,08,18,06,30,14.30
2008,08,18,06,31,14.30
2008,08,18,06,32,14.30
2008,08,18,06,33,14.30
2008,08,18,06,34,14.30
2008,08,18,06,35,14.30
2008,08,18,06,36,14.30
2008,08,18,06,37,14.30
2008,08,18,06,38,14.40
2008,08,18,06,39,14.40
2008,08,18,06,40,14.40
2008,08,18,06,41,14.40
2008,08,18,06,42,14.40
2008,08,18,06,43,14.40
2008,08,18,06,44,14.40
2008,08,18,06,45,14.40
2008,08,18,06,46,14.40
2008,08,18,06,47,14.40
2008,08,18,06,48,14.40
2008,08,18,06,49,14.50
2008,08,18,06,50,14.50
2008,08,18,06,51,14.50
2008,08,18,06,52,14.50
2008,08,18,06,53,14.50
2008,08,18,06,54,14.50
2008,08,18,06,55,14.50
2008,08,18,06,56,14.60
2008,08,18,06,57,14.60
2008,08,18,06,58,14.60
2008,08,18,06,59,14.50
2008,08,18,07,00,14.50
2008,08,18,07,01,14.60
2008,08,18,07,02,14.60
2008,08,18,07,03,14.60
2008,08,18,07,04,14.60
2008,08,18,07,05,14.60
2008,08,18,07,06,14.60
2008,08,18,07,07,14.60
2008,08,18,07,08,14.60
2008,08,18,07,09,14.60
2008,08,18,07,10,14.60
2008,08,18,07,11,14.60
2008,08,18,07,12,14.60
2008,08,18,07,13,14.60
2008,08,18,07,14,14.60
2008,08,18,07,15,14.60
2008,08,18,07,16,14.60
2008,08,18,07,17,14.60
2008,08,18,07,18,14.60
2008,08,18,07,19,14.60
2008,08,18,07,20,14.60
2008,08,18,07,21,14.60
2008,08,18,07,22,14.60
2008,08,18,07,23,14.60
2008,08,18,07,24,14.60
2008,08,18,07,25,14.50
2008,08,18,07,26,14.50
2008,08,18,07,27,14.40
2008,08,18,07,28,14.30
2008,08,18,07,29,14.30
2008,08,18,07,30,14.30
2008,08,18,07,31,14.30
2008,08,18,07,32,14.30
2008,08,18,07,33,14.30
2008,08,18,07,34,14.40
2008,08,18,07,35,14.40
2008,08,18,07,36,14.40
2008,08,18,07,37,14.50
2008,08,18,07,38,14.50
2008,08,18,07,39,14.50
2008,08,18,07,40,14.60
2008,08,18,07,41,14.60
2008,08,18,07,42,14.70
2008,08,18,07,43,14.80
2008,08,18,07,44,14.80
2008,08,18,07,45,14.80
2008,08,18,07,46,14.80
2008,08,18,07,47,14.80
2008,08,18,07,48,14.80
2008,08,18,07,49,14.80
2008,08,18,07,50,14.80
2008,08,18,07,51,14.80
2008,08,18,07,52,14.80
2008,08,18,07,53,14.80
2008,08,18,07,54,14.80
2008,08,18,07,55,14.80
2008,08,18,07,56,14.80
2008,08,18,07,57,14.80
2008,08,18,07,58,14.90
2008,08,18,07,59,14.90
2008,08,18,08,00,15.00
2008,08,18,08,01,15.00
2008,08,18,08,02,15.10
2008,08,18,08,03,15.10
2008,08,18,08,04,15.20
2008,08,18,08,05,15.30
2008,08,18,08,06,15.30
2008,08,18,08,07,15.30
2008,08,18,08,08,15.30
2008,08,18,08,09,15.30
2008,08,18,08,10,15.40
2008,08,18,08,11,15.40
2008,08,18,08,12,15.50
2008,08,18,08,13,15.50
2008,08,18,08,14,15.60
2008,08,18,08,15,15.60
2008,08,18,08,16,15.70
2008,08,18,08,17,15.80
2008,08,18,08,18,15.80
2008,08,18,08,19,15.80
2008,08,18,08,20,15.80
2008,08,18,08,21,15.90
2008,08,18,08,22,15.90
2008,08,18,08,23,16.00
2008,08,18,08,24,16.10
2008,08,18,08,25,16.10
2008,08,18,08,26,16.10
2008,08,18,08,27,16.20
2008,08,18,08,28,16.30
2008,08,18,08,29,16.30
2008,08,18,08,30,16.40
2008,08,18,08,31,16.60
2008,08,18,08,32,16.70
2008,08,18,08,33,16.80
2008,08,18,08,34,17.00
2008,08,18,08,35,17.10
2008,08,18,08,36,17.30
2008,08,18,08,37,17.40
2008,08,18,08,38,17.50
2008,08,18,08,39,17.70
2008,08,18,08,40,17.80
2008,08,18,08,41,17.80
2008,08,18,08,42,17.90
2008,08,18,08,43,17.90
2008,08,18,08,44,18.10
2008,08,18,08,45,18.10
2008,08,18,08,46,18.20
2008,08,18,08,47,18.30
2008,08,18,08,48,18.30
2008,08,18,08,49,18.40
2008,08,18,08,50,18.40
2008,08,18,08,51,18.50
2008,08,18,08,52,18.50
2008,08,18,08,53,18.50
2008,08,18,08,54,18.60
2008,08,18,08,55,18.60
2008,08,18,08,56,18.60
2008,08,18,08,57,18.70
2008,08,18,08,58,18.70
2008,08,18,08,59,18.80
2008,08,18,09,00,18.90
2008,08,18,09,01,19.00
2008,08,18,09,02,19.10
2008,08,18,09,03,19.20
2008,08,18,09,04,19.30
2008,08,18,09,05,19.50
2008,08,18,09,06,19.60
2008,08,18,09,07,19.70
2008,08,18,09,08,19.80
2008,08,18,09,09,19.90
2008,08,18,09,10,19.90
2008,08,18,09,11,20.00
2008,08,18,09,12,20.10
2008,08,18,09,13,20.20
2008,08,18,09,14,20.20
2008,08,18,09,15,20.20
2008,08,18,09,16,20.20
2008,08,18,09,17,20.30
2008,08,18,09,18,20.40
2008,08,18,09,19,20.40
2008,08,18,09,20,20.50
2008,08,18,09,21,20.60
2008,08,18,09,22,20.70
2008,08,18,09,23,20.80
2008,08,18,09,24,20.80
2008,08,18,09,25,21.00
2008,08,18,09,26,21.10
2008,08,18,09,27,21.30
2008,08,18,09,28,21.30
2008,08,18,09,29,21.50
2008,08,18,09,30,21.60
2008,08,18,09,31,21.60
2008,08,18,09,32,21.70
2008,08,18,09,33,21.90
2008,08,18,09,34,21.90
2008,08,18,09,35,22.00
2008,08,18,09,36,22.00
2008,08,18,09,37,22.10
2008,08,18,09,38,22.00
2008,08,18,09,39,22.00
2008,08,18,09,40,21.90
2008,08,18,09,41,21.90
2008,08,18,09,42,21.90
2008,08,18,09,43,21.90
2008,08,18,09,44,21.90
2008,08,18,09,45,22.00
2008,08,18,09,46,22.00
2008,08,18,09,47,22.00
2008,08,18,09,48,22.00
2008,08,18,09,49,21.90
2008,08,18,09,50,21.70
2008,08,18,09,51,21.70
2008,08,18,09,52,21.70
2008,08,18,09,53,21.70
2008,08,18,09,54,21.60
2008,08,18,09,55,21.60
2008,08,18,09,56,21.70
2008,08,18,09,57,21.70
2008,08,18,09,58,21.80
2008,08,18,09,59,21.90
2008,08,18,10,00,22.00
2008,08,18,10,01,22.10
2008,08,18,10,02,22.10
2008,08,18,10,03,22.20
2008,08,18,10,04,22.20
2008,08,18,10,05,22.20
2008,08,18,10,06,22.10
2008,08,18,10,07,22.00
2008,08,18,10,08,21.90
2008,08,18,10,09,21.90
2008,08,18,10,10,21.80
2008,08,18,10,11,21.80
2008,08,18,10,12,21.80
2008,08,18,10,13,21.80
2008,08,18,10,14,21.80
2008,08,18,10,15,21.70
2008,08,18,10,16,21.70
2008,08,18,10,17,21.80
2008,08,18,10,18,21.90
2008,08,18,10,19,21.90
2008,08,18,10,20,22.00
2008,08,18,10,21,22.00
2008,08,18,10,22,22.00
2008,08,18,10,23,22.10
2008,08,18,10,24,22.20
2008,08,18,10,25,22.30
2008,08,18,10,26,22.40
2008,08,18,10,27,22.60
2008,08,18,10,28,22.70
2008,08,18,10,29,22.80
2008,08,18,10,30,22.90
2008,08,18,10,31,23.00
2008,08,18,10,32,23.10
2008,08,18,10,33,23.20
2008,08,18,10,34,23.30
2008,08,18,10,35,23.30
2008,08,18,10,36,23.40
2008,08,18,10,37,23.40
2008,08,18,10,38,23.50
2008,08,18,10,39,23.40
2008,08,18,10,40,23.20
2008,08,18,10,41,23.00
2008,08,18,10,42,22.90
2008,08,18,10,43,22.80
2008,08,18,10,44,22.60
2008,08,18,10,45,22.50
2008,08,18,10,46,22.50
2008,08,18,10,47,22.40
2008,08,18,10,48,22.40
2008,08,18,10,49,22.40
2008,08,18,10,50,22.50
2008,08,18,10,51,22.50
2008,08,18,10,52,22.50
2008,08,18,10,53,22.50
2008,08,18,10,54,22.50
2008,08,18,10,55,22.60
2008,08,18,10,56,22.40
2008,08,18,10,57,22.30
2008,08,18,10,58,22.20
2008,08,18,10,59,22.10
2008,08,18,11,00,22.00
2008,08,18,11,01,21.90
2008,08,18,11,02,21.80
2008,08,18,11,03,21.70
2008,08,18,11,04,21.70
2008,08,18,11,05,21.60
2008,08,18,11,06,21.50
2008,08,18,11,07,21.40
2008,08,18,11,08,21.30
2008,08,18,11,09,21.30
2008,08,18,11,10,21.20
2008,08,18,11,11,21.10
2008,08,18,11,12,21.00
2008,08,18,11,13,20.90
2008,08,18,11,14,20.80
2008,08,18,11,15,20.60
2008,08,18,11,16,20.50
2008,08,18,11,17,20.40
2008,08,18,11,18,20.40
2008,08,18,11,19,20.30
2008,08,18,11,20,20.20
2008,08,18,11,21,20.20
2008,08,18,11,22,20.20
2008,08,18,11,23,20.10
2008,08,18,11,24,20.10
2008,08,18,11,25,19.90
2008,08,18,11,26,19.90
2008,08,18,11,27,19.90
2008,08,18,11,28,19.70
2008,08,18,11,29,19.70
2008,08,18,11,30,19.70
2008,08,18,11,31,19.60
2008,08,18,11,32,19.60
2008,08,18,11,33,19.60
2008,08,18,11,34,19.50
2008,08,18,11,35,19.50
2008,08,18,11,36,19.60
2008,08,18,11,37,19.60
2008,08,18,11,38,19.60
2008,08,18,11,39,19.70
2008,08,18,11,40,19.60
2008,08,18,11,41,19.60
2008,08,18,11,42,19.50
2008,08,18,11,43,19.40
2008,08,18,11,44,19.30
2008,08,18,11,45,19.20
2008,08,18,11,46,19.10
2008,08,18,11,47,18.90
2008,08,18,11,48,18.90
2008,08,18,11,49,18.80
2008,08,18,11,50,18.70
2008,08,18,11,51,18.50
2008,08,18,11,52,18.50
2008,08,18,11,53,18.40
2008,08,18,11,54,18.30
2008,08,18,11,55,18.20
2008,08,18,11,56,18.20
2008,08,18,11,57,18.10
2008,08,18,11,58,18.10
2008,08,18,11,59,18.00
2008,08,18,12,00,17.90
2008,08,18,12,01,17.90
2008,08,18,12,02,17.90
2008,08,18,12,03,17.80
2008,08,18,12,04,17.80
2008,08,18,12,05,17.80
2008,08,18,12,06,17.80
2008,08,18,12,07,17.80
2008,08,18,12,08,17.90
2008,08,18,12,09,17.90
2008,08,18,12,10,17.90
2008,08,18,12,11,17.90
2008,08,18,12,12,18.00
2008,08,18,12,13,18.10
2008,08,18,12,14,18.20
2008,08,18,12,15,18.20
2008,08,18,12,16,18.20
2008,08,18,12,17,18.30
2008,08,18,12,18,18.40
2008,08,18,12,19,18.40
2008,08,18,12,20,18.50
2008,08,18,12,21,18.50
2008,08,18,12,22,18.50
2008,08,18,12,23,18.50
2008,08,18,12,24,18.40
2008,08,18,12,25,18.40
2008,08,18,12,26,18.40
2008,08,18,12,27,18.30
2008,08,18,12,28,18.20
2008,08,18,12,29,18.20
2008,08,18,12,30,18.20
2008,08,18,12,31,18.20
2008,08,18,12,32,18.20
2008,08,18,12,33,18.20
2008,08,18,12,34,18.20
2008,08,18,12,35,18.20
2008,08,18,12,36,18.20
2008,08,18,12,37,18.30
2008,08,18,12,38,18.20
2008,08,18,12,39,18.30
2008,08,18,12,40,18.20
2008,08,18,12,41,18.20
2008,08,18,12,42,18.20
2008,08,18,12,43,18.20
2008,08,18,12,44,18.20
2008,08,18,12,45,18.20
2008,08,18,12,46,18.20
2008,08,18,12,47,18.20
2008,08,18,12,48,18.10
2008,08,18,12,49,18.00
2008,08,18,12,50,17.90
2008,08,18,12,51,17.80
2008,08,18,12,52,17.60
2008,08,18,12,53,17.50
2008,08,18,12,54,17.40
2008,08,18,12,55,17.30
2008,08,18,12,56,17.30
2008,08,18,12,57,17.10
2008,08,18,12,58,17.00
2008,08,18,12,59,17.00
2008,08,18,13,00,17.00
2008,08,18,13,01,16.90
2008,08,18,13,02,16.80
2008,08,18,13,03,16.80
2008,08,18,13,04,16.90
2008,08,18,13,05,16.90
2008,08,18,13,06,16.90
2008,08,18,13,07,16.90
2008,08,18,13,08,17.00
2008,08,18,13,09,17.00
2008,08,18,13,10,17.00
2008,08,18,13,11,17.10
2008,08,18,13,12,17.10
2008,08,18,13,13,17.10
2008,08,18,13,14,17.10
2008,08,18,13,15,17.10
2008,08,18,13,16,17.10
2008,08,18,13,17,17.10
2008,08,18,13,18,17.10
2008,08,18,13,19,17.10
2008,08,18,13,20,17.20
2008,08,18,13,21,17.20
2008,08,18,13,22,17.30
2008,08,18,13,23,17.30
2008,08,18,13,24,17.40
2008,08,18,13,25,17.50
2008,08,18,13,26,17.60
2008,08,18,13,27,17.70
2008,08,18,13,28,17.70
2008,08,18,13,29,17.70
2008,08,18,13,30,17.80
2008,08,18,13,31,17.80
2008,08,18,13,32,17.80
2008,08,18,13,33,17.80
2008,08,18,13,34,17.90
2008,08,18,13,35,17.90
2008,08,18,13,36,17.90
2008,08,18,13,37,18.00
2008,08,18,13,38,18.10
2008,08,18,13,39,18.10
2008,08,18,13,40,18.20
2008,08,18,13,41,18.20
2008,08,18,13,42,18.20
2008,08,18,13,43,18.20
2008,08,18,13,44,18.30
2008,08,18,13,45,18.30
2008,08,18,13,46,18.20
2008,08,18,13,47,18.20
2008,08,18,13,48,18.20
2008,08,18,13,49,18.20
2008,08,18,13,50,18.10
2008,08,18,13,51,18.10
2008,08,18,13,52,18.10
2008,08,18,13,53,18.20
2008,08,18,13,54,18.20
2008,08,18,13,55,18.20
2008,08,18,13,56,18.20
2008,08,18,13,57,18.20
2008,08,18,13,58,18.20
2008,08,18,13,59,18.20
2008,08,18,14,00,18.20
2008,08,18,14,01,18.40
2008,08,18,14,02,18.50
2008,08,18,14,03,18.50
2008,08,18,14,04,18.50
2008,08,18,14,05,18.60
2008,08,18,14,06,18.60
2008,08,18,14,07,18.60
2008,08,18,14,08,18.70
2008,08,18,14,09,18.70
2008,08,18,14,10,18.70
2008,08,18,14,11,18.70
2008,08,18,14,12,18.80
2008,08,18,14,13,18.80
2008,08,18,14,14,18.80
2008,08,18,14,15,18.80
2008,08,18,14,16,18.80
2008,08,18,14,17,18.80
2008,08,18,14,18,18.80
2008,08,18,14,19,18.80
2008,08,18,14,20,18.80
2008,08,18,14,21,18.80
2008,08,18,14,22,18.70
2008,08,18,14,23,18.70
2008,08,18,14,24,18.70
2008,08,18,14,25,18.70
2008,08,18,14,26,18.70
2008,08,18,14,27,18.80
2008,08,18,14,28,18.80
2008,08,18,14,29,18.70
2008,08,18,14,30,18.80
2008,08,18,14,31,18.80
2008,08,18,14,32,18.80
2008,08,18,14,33,18.80
2008,08,18,14,34,18.80
2008,08,18,14,35,18.80
2008,08,18,14,36,18.70
2008,08,18,14,37,18.70
2008,08,18,14,38,18.70
2008,08,18,14,39,18.70
2008,08,18,14,40,18.70
2008,08,18,14,41,18.80
2008,08,18,14,42,18.80
2008,08,18,14,43,18.90
2008,08,18,14,44,18.90
2008,08,18,14,45,18.90
2008,08,18,14,46,18.90
2008,08,18,14,47,18.90
2008,08,18,14,48,19.00
2008,08,18,14,49,19.10
2008,08,18,14,50,19.10
2008,08,18,14,51,19.10
2008,08,18,14,52,19.20
2008,08,18,14,53,19.20
2008,08,18,14,54,19.30
2008,08,18,14,55,19.40
2008,08,18,14,56,19.50
2008,08,18,14,57,19.60
2008,08,18,14,58,19.70
2008,08,18,14,59,19.80
2008,08,18,15,00,19.90
2008,08,18,15,01,20.00
2008,08,18,15,02,20.10
2008,08,18,15,03,20.20
2008,08,18,15,04,20.30
2008,08,18,15,05,20.30
2008,08,18,15,06,20.40
2008,08,18,15,07,20.50
2008,08,18,15,08,20.50
2008,08,18,15,09,20.60
2008,08,18,15,10,20.60
2008,08,18,15,11,20.70
2008,08,18,15,12,20.70
2008,08,18,15,13,20.80
2008,08,18,15,14,20.90
2008,08,18,15,15,20.90
2008,08,18,15,16,20.90
2008,08,18,15,17,21.00
2008,08,18,15,18,21.00
2008,08,18,15,19,21.00
2008,08,18,15,20,21.10
2008,08,18,15,21,21.10
2008,08,18,15,22,21.20
2008,08,18,15,23,21.30
2008,08,18,15,24,21.50
2008,08,18,15,25,21.60
2008,08,18,15,26,21.70
2008,08,18,15,27,21.70
2008,08,18,15,28,21.80
2008,08,18,15,29,21.90
2008,08,18,15,30,21.90
2008,08,18,15,31,22.00
2008,08,18,15,32,22.00
2008,08,18,15,33,22.10
2008,08,18,15,34,22.20
2008,08,18,15,35,22.30
2008,08,18,15,36,22.40
2008,08,18,15,37,22.50
2008,08,18,15,38,22.60
2008,08,18,15,39,22.80
2008,08,18,15,40,23.00
2008,08,18,15,41,23.10
2008,08,18,15,42,23.30
2008,08,18,15,43,23.30
2008,08,18,15,44,23.30
2008,08,18,15,45,23.40
2008,08,18,15,46,23.40
2008,08,18,15,47,23.40
2008,08,18,15,48,23.40
2008,08,18,15,49,23.40
2008,08,18,15,50,23.50
2008,08,18,15,51,23.60
2008,08,18,15,52,23.50
2008,08,18,15,53,23.30
2008,08,18,15,54,23.30
2008,08,18,15,55,23.20
2008,08,18,15,56,23.10
2008,08,18,15,57,23.10
2008,08,18,15,58,23.10
2008,08,18,15,59,23.10
2008,08,18,16,00,23.10
2008,08,18,16,01,22.90
2008,08,18,16,02,22.90
2008,08,18,16,03,22.90
2008,08,18,16,04,22.90
2008,08,18,16,05,22.90
2008,08,18,16,06,22.90
2008,08,18,16,07,22.90
2008,08,18,16,08,22.70
2008,08,18,16,09,22.50
2008,08,18,16,10,22.40
2008,08,18,16,11,22.30
2008,08,18,16,12,22.20
2008,08,18,16,13,22.00
2008,08,18,16,14,21.80
2008,08,18,16,15,21.60
2008,08,18,16,16,21.40
2008,08,18,16,17,21.30
2008,08,18,16,18,21.30
2008,08,18,16,19,21.30
2008,08,18,16,20,21.40
2008,08,18,16,21,21.40
2008,08,18,16,22,21.40
2008,08,18,16,23,21.40
2008,08,18,16,24,21.20
2008,08,18,16,25,21.00
2008,08,18,16,26,20.70
2008,08,18,16,27,20.50
2008,08,18,16,28,20.40
2008,08,18,16,29,20.20
2008,08,18,16,30,20.20
2008,08,18,16,31,20.10
2008,08,18,16,32,20.00
2008,08,18,16,33,19.90
2008,08,18,16,34,19.80
2008,08,18,16,35,19.80
2008,08,18,16,36,19.80
2008,08,18,16,37,19.70
2008,08,18,16,38,19.60
2008,08,18,16,39,19.50
2008,08,18,16,40,19.50
2008,08,18,16,41,19.50
2008,08,18,16,42,19.40
2008,08,18,16,43,19.30
2008,08,18,16,44,19.30
2008,08,18,16,45,19.40
2008,08,18,16,46,19.40
2008,08,18,16,47,19.40
2008,08,18,16,48,19.30
2008,08,18,16,49,19.20
2008,08,18,16,50,19.10
2008,08,18,16,51,19.10
2008,08,18,16,52,19.00
2008,08,18,16,53,18.90
2008,08,18,16,54,18.90
2008,08,18,16,55,18.90
2008,08,18,16,56,18.90
2008,08,18,16,57,18.90
2008,08,18,16,58,18.90
2008,08,18,16,59,18.90
2008,08,18,17,00,18.90
2008,08,18,17,01,19.00
2008,08,18,17,02,19.10
2008,08,18,17,03,19.10
2008,08,18,17,04,19.10
2008,08,18,17,05,19.10
2008,08,18,17,06,19.10
2008,08,18,17,07,19.10
2008,08,18,17,08,19.10
2008,08,18,17,09,19.10
2008,08,18,17,10,19.10
2008,08,18,17,11,19.20
2008,08,18,17,12,19.30
2008,08,18,17,13,19.30
2008,08,18,17,14,19.40
2008,08,18,17,15,19.40
2008,08,18,17,16,19.40
2008,08,18,17,17,19.50
2008,08,18,17,18,19.50
2008,08,18,17,19,19.40